Voltar ao catálogo

SL-8 DEB

AtivoLEO
NORAD 21209·DEBRIS·🇷🇺 Russia

Lançado Feb 12, 1991 de Plesetsk Cosmodrome

Loading…

Próximas Passagens (próximas 24 horas)

TLE

AtualizadoSource: Space-Track

Época: Sep 14, 2026, 14:09 UTC

1 21209U 91009BC  26257.58980653  .00000021  00000-0  31725-3 0  9993
2 21209  74.0401 319.2220 0134280  22.5554  46.6762 12.23761969584231

Acompanhe SL-8 DEB em tempo real com AllMySat

Download on the App Store